Home   Weather   Pasco   Past weeks

Flag for USA Past Weather in Pasco, Washington, USA — Yesterday and Last 2 Weeks

Now
32 °F

Clear.


Feels Like: 25 °F
Forecast: 29 / 40 °F
Wind: 8 mph from West

Location: Tri-Cities Airport

Current Time: Dec 4, 2016 at 8:35:25 pm

Latest Report: Dec 4, 2016 at 7:53 pm


Visibility: 10 mi

Pressure: 30.06 "Hg

Humidity: 61%

Dew Point: 20 °F

Location of PascoLocation

Past Weather in Pasco — Graph

°F

Pasco Temperature Yesterday

Maximum temperature yesterday: 54 °F (at 11:53 am)
Minimum temperature yesterday: 44 °F (at 1:53 am)
Average temperature yesterday: 48 °F

High & Low Weather Summary for the Past Weeks

 TemperatureHumidityPressure
High58 °F (Nov 25, 1:53 am)100% (Nov 19, 7:53 pm)30.38 "Hg (Nov 19, 7:53 pm)
Low26 °F (Nov 29, 4:53 am)31% (Nov 25, 1:53 am)29.42 "Hg (Nov 26, 7:53 pm)
Average43 °F78%29.98 "Hg
* Reported Nov 19 6:53 pm — Dec 4 6:53 pm, Pasco, Weather by CustomWeather, © 2016

Note: Actual official high and low records may vary slightly from our data, if they occured in-between our weather recording intervals... More about our weather records

Advertising

Pasco Weather History for the Previous 24 Hours

Scroll right to see more
 ConditionsComfort  
Time TempWeatherWind HumidityBarometerVisibility
6:53 pm
Sun, Dec 4
38 °FClear.13 mph46%30.04 "Hg10 mi
5:53 pm41 °FClear.13 mph39%30.03 "Hg10 mi
4:53 pm40 °FPassing clouds.16 mph45%30.01 "Hg10 mi
3:53 pm45 °FSunny.21 mph37%29.97 "Hg10 mi
2:53 pm49 °FSunny.20 mph35%29.94 "Hg10 mi
1:53 pm50 °FSunny.17 mph41%29.92 "Hg10 mi
12:53 pm47 °FCloudy.10 mph61%29.92 "Hg10 mi
11:53 am51 °FSunny.13 mph52%29.91 "Hg10 mi
10:53 am47 °FScattered clouds.13 mph69%29.91 "Hg10 mi
9:53 am46 °FPassing clouds.17 mph71%29.90 "Hg10 mi
8:53 am47 °FPartly sunny.15 mph69%29.90 "Hg10 mi
7:53 am47 °FOvercast.17 mph69%29.89 "Hg10 mi
6:53 am48 °FPassing clouds.22 mph66%29.88 "Hg10 mi
5:53 am48 °FPassing clouds.28 mph66%29.88 "Hg10 mi
4:53 am48 °FClear.30 mph66%29.89 "Hg10 mi
3:53 am48 °FClear.29 mph63%29.93 "Hg10 mi
2:53 am48 °FOvercast.26 mph61%29.96 "Hg10 mi
1:53 am48 °FPassing clouds.14 mph61%30.01 "Hg10 mi
12:53 am47 °FClear.18 mph61%30.04 "Hg10 mi
11:53 pm
Sat, Dec 3
48 °FPassing clouds.23 mph61%30.05 "Hg10 mi
10:53 pm49 °FClear.28 mph59%30.06 "Hg10 mi
9:53 pm47 °FClear.25 mph66%30.09 "Hg10 mi
8:53 pm48 °FClear.17 mph63%30.11 "Hg10 mi
Weather by CustomWeather, © 2016

See weather overviewHow to use our weather pages